Theta_e
304 304 304 304 301 299 300 299 299 298 298 298 298 298 298 298 298 298 299 300 301 301 301 301 302 301 301 300 301 303 302 299 300 300 301 303 308 308 308 308 307 306 306 306 306 305 304 305 304 304 307 307 308 310 310 309 311 320 326 321 314 313 317 316 314 315 314 314 313 311 310 309 308 309 311 311 310 310 310 312 314 315 317 320 326 332 332 331
300 299 302 303 299 297 298 298 299 298 298 298 298 298 298 298 298 299 300 301 301 301 301 302 302 301 301 302 301 302 304 301 299 300 300 303 307 308 306 306 305 306 306 307 306 305 305 305 303 303 306 307 307 308 309 308 310 313 315 316 313 313 315 312 312 312 312 313 312 311 310 309 308 309 310 311 310 309 310 311 311 311 311 311 314 319 317 316
295 295 298 299 297 297 298 298 298 298 298 298 298 298 298 298 298 299 300 300 300 300 301 302 301 301 301 303 302 301 304 303 299 299 300 302 306 306 304 304 305 306 306 307 307 306 305 305 304 304 305 305 305 307 307 308 312 311 312 315 313 314 314 310 311 310 310 311 311 311 310 309 308 308 310 310 309 309 310 310 310 310 310 310 310 311 310 309
294 295 296 296 296 297 297 298 298 298 298 298 298 298 298 298 298 299 300 300 300 300 300 301 301 301 301 303 303 301 303 303 299 299 301 302 305 304 304 305 305 306 306 307 307 307 306 305 304 305 305 305 305 306 306 307 312 312 312 314 312 313 313 310 310 309 309 310 310 311 310 310 309 309 309 309 309 309 309 309 309 309 309 309 308 309 309 309
294 295 296 296 296 297 297 297 297 298 298 298 298 298 298 298 298 299 300 300 301 300 300 300 301 301 301 302 304 303 303 302 299 300 301 302 304 304 305 305 305 306 306 306 307 307 307 305 305 307 307 305 305 306 306 306 310 312 311 311 310 311 310 309 309 308 309 310 310 310 310 309 309 309 308 308 310 309 308 307 307 307 307 306 306 307 307 307
295 295 296 296 296 297 297 297 297 298 298 298 298 298 298 298 298 299 300 301 301 301 300 299 300 302 302 301 301 302 303 301 299 300 301 302 304 305 305 305 305 305 305 306 307 307 308 307 306 310 310 307 306 306 305 305 309 310 309 309 309 309 308 307 308 308 308 308 309 310 309 308 309 309 308 308 308 307 306 305 306 305 304 304 304 305 305 305
294 295 296 296 297 297 297 298 298 298 298 298 298 298 298 298 298 298 299 301 301 300 300 299 300 301 303 303 300 300 301 300 299 301 301 302 304 305 305 305 305 305 305 306 306 308 308 309 309 309 310 308 307 307 306 305 306 308 307 307 307 307 307 306 307 308 307 305 306 308 308 309 309 309 308 307 305 305 304 304 304 303 303 303 302 303 303 304
295 295 296 296 297 298 298 298 298 298 298 298 298 298 298 298 299 299 300 301 301 300 300 300 300 299 301 304 301 299 300 300 300 301 301 303 304 304 305 305 305 305 305 305 306 307 308 309 310 309 310 308 306 307 307 306 307 307 306 306 306 306 307 307 307 307 306 304 304 306 308 308 308 307 306 305 304 304 304 303 302 302 302 301 301 301 302 302
294 295 296 296 297 298 298 299 299 299 298 298 298 298 298 298 299 299 300 300 300 300 300 299 300 299 300 301 301 299 299 300 300 301 301 303 304 304 305 304 305 305 305 305 305 306 308 310 311 310 309 309 307 306 308 308 307 306 306 306 306 306 306 306 306 306 306 304 304 306 307 306 307 307 304 303 304 303 302 302 301 301 301 300 301 301 301 301
294 295 296 296 297 298 299 299 299 299 299 299 298 298 299 299 299 300 300 300 301 301 300 300 299 299 299 300 300 300 300 300 300 301 302 303 304 304 304 304 305 305 305 304 304 306 307 309 310 309 308 308 307 306 307 306 305 305 306 307 306 305 304 304 305 306 306 305 305 306 303 302 304 305 303 302 302 301 301 301 301 300 300 300 300 300 300 301
294 295 296 296 298 298 299 299 299 300 299 299 299 299 299 299 299 299 299 300 301 301 301 300 299 300 299 299 300 300 300 300 300 301 302 303 304 304 304 304 304 304 305 304 303 304 306 307 309 309 309 307 306 307 306 305 305 306 307 306 304 304 304 304 304 305 305 306 305 304 301 300 302 302 302 301 300 300 300 300 300 300 300 300 300 300 300 300
294 295 296 297 298 298 299 299 299 299 299 299 299 299 299 299 299 299 299 300 301 302 301 300 299 300 300 299 299 300 300 300 300 301 303 303 303 303 303 303 303 303 304 304 303 302 304 307 308 307 308 307 306 307 306 305 305 305 305 305 304 304 304 304 304 304 305 305 304 304 302 300 300 301 301 300 300 300 299 299 299 299 299 299 299 299 299 300
294 295 296 296 298 298 299 299 299 299 299 299 299 299 299 299 299 299 300 300 301 301 301 301 299 300 300 300 299 299 299 300 301 302 303 303 303 303 303 302 301 301 302 302 302 302 303 304 305 304 303 305 306 305 304 304 305 305 304 303 305 305 304 304 303 304 305 305 304 304 302 299 299 300 300 300 299 299 299 299 299 299 299 299 299 299 299 300
294 295 296 296 297 298 298 299 299 299 299 299 299 300 299 299 300 300 300 300 301 301 301 301 300 300 301 301 300 299 299 300 301 302 302 303 303 302 303 302 301 300 301 301 301 302 302 301 302 302 301 302 303 304 303 303 302 304 304 304 306 306 305 305 303 303 304 304 303 301 300 299 299 299 299 299 299 299 299 298 298 298 298 299 299 299 299 299
294 295 295 296 297 298 298 299 299 299 299 299 299 300 299 300 300 299 300 300 300 301 300 300 300 300 303 302 299 299 299 300 301 301 301 302 302 302 302 302 302 301 300 301 301 301 301 301 301 300 300 300 301 303 303 302 301 303 305 306 306 305 305 306 303 303 303 302 301 302 300 299 299 299 299 299 298 298 298 298 298 298 298 298 298 298 299 299
294 295 296 296 296 297 298 298 299 299 299 299 300 300 299 300 300 300 300 300 301 300 300 301 299 300 303 301 299 299 299 299 300 300 301 302 302 302 301 301 302 302 301 300 300 300 300 301 301 300 300 299 301 303 302 302 302 302 304 305 304 304 305 306 304 303 302 300 300 301 300 299 299 298 298 298 298 298 298 298 298 298 298 298 298 298 298 298
294 295 296 296 296 297 297 298 299 299 299 299 299 300 299 299 299 300 300 300 302 301 300 300 298 300 302 299 300 301 299 299 299 300 301 301 302 302 301 301 300 300 302 300 299 300 299 300 301 300 299 299 300 302 302 302 303 303 304 305 304 304 304 306 305 304 302 299 299 299 299 299 298 298 298 298 298 298 297 297 297 297 297 297 298 298 298 298
294 294 295 297 297 297 297 297 298 298 299 299 299 300 301 300 299 300 300 301 302 302 301 299 300 304 303 300 300 300 299 299 299 299 300 301 302 302 301 301 299 299 303 303 299 299 300 301 300 299 299 298 298 300 302 301 302 302 304 306 305 305 304 305 305 304 302 299 298 298 298 298 298 297 297 297 297 297 297 297 297 297 297 297 297 297 297 297
294 294 295 297 298 297 297 297 298 298 298 298 298 298 301 302 301 300 299 299 300 301 301 299 300 302 300 299 299 299 299 299 299 299 300 301 302 302 301 301 300 299 302 304 301 299 300 300 299 298 299 298 298 300 301 301 301 302 303 303 304 306 306 304 304 304 301 299 299 298 298 298 297 297 297 297 297 297 297 297 297 297 297 297 297 297 297 297
294 293 294 297 298 297 297 298 298 298 298 298 297 299 307 310 309 304 300 300 299 299 300 299 300 301 300 299 299 299 300 300 299 298 299 300 301 303 301 301 302 299 298 301 302 299 298 298 298 299 298 298 298 299 300 301 300 302 302 303 304 305 307 305 304 305 304 302 301 299 298 298 297 297 297 297 297 297 297 297 297 297 297 297 297 297 297 297
294 293 294 296 298 298 297 297 299 299 300 298 298 303 307 308 308 304 301 301 299 297 299 298 299 300 299 300 298 298 301 301 299 298 299 299 300 304 303 301 301 298 298 301 303 300 298 298 299 299 298 298 298 298 300 301 300 301 302 304 304 303 306 306 304 305 305 305 303 301 301 301 299 297 296 296 297 297 297 297 297 297 297 297 297 297 297 297
295 294 294 296 298 298 298 297 298 299 301 300 302 302 301 301 302 301 301 303 300 298 299 298 298 300 299 299 298 298 300 301 301 299 298 299 301 304 305 302 301 299 298 300 301 299 297 297 300 299 298 298 297 297 299 301 300 301 301 303 304 302 304 308 305 305 306 306 305 302 302 304 303 299 296 296 296 296 297 297 297 297 297 297 297 297 297 297
295 295 295 296 298 298 298 298 297 298 300 300 301 299 300 300 300 301 302 303 301 299 301 300 298 300 300 299 298 299 300 299 301 300 298 300 300 302 305 304 302 300 299 298 298 298 297 298 299 299 297 297 297 296 298 300 300 301 301 303 303 301 304 309 308 305 305 306 306 305 305 306 306 302 297 297 296 296 296 297 297 298 297 298 297 298 298 297
295 295 295 297 298 298 298 298 297 297 297 297 297 297 298 299 301 302 302 303 303 300 300 300 297 298 300 299 297 300 301 299 299 299 298 299 299 302 305 303 302 302 300 299 299 299 299 298 298 298 297 297 298 296 297 301 303 303 302 301 301 300 302 305 305 306 307 308 307 309 311 310 309 306 299 298 297 295 296 297 297 298 298 298 298 298 298 298
295 295 295 295 297 298 298 296 297 298 295 294 295 295 296 298 300 302 302 304 304 300 299 299 298 297 297 298 297 298 300 299 297 298 297 298 299 303 304 301 302 304 303 302 301 301 299 298 298 297 297 298 298 297 297 300 306 305 301 300 300 300 301 302 304 309 312 309 304 305 311 312 311 308 303 301 297 294 295 297 296 297 297 297 297 298 298 298
295 295 295 295 296 298 299 296 295 298 297 294 293 294 296 297 299 299 303 311 306 299 300 299 299 299 298 298 296 296 301 301 297 297 297 296 297 301 303 301 301 302 302 302 301 300 299 300 299 297 297 298 297 297 297 298 305 305 300 300 299 298 302 304 306 311 313 308 302 301 307 313 312 308 307 303 297 294 295 296 296 297 297 297 297 297 297 297
295 296 296 297 296 296 299 297 294 295 297 294 293 295 296 298 298 297 304 316 309 298 300 301 299 299 298 297 296 299 304 301 298 297 297 296 296 300 302 302 302 300 299 303 304 299 299 302 302 297 297 298 296 297 297 297 302 305 301 299 299 300 303 305 306 309 309 307 304 300 303 312 313 310 308 302 296 296 295 295 296 297 297 297 297 297 297 297
294 295 296 298 299 297 296 295 294 294 294 294 293 295 297 298 298 301 309 310 303 298 299 301 299 298 298 297 296 301 303 299 299 298 296 295 295 300 303 299 300 299 297 304 307 301 299 301 300 299 297 298 297 296 297 297 301 306 303 298 298 300 302 304 307 310 307 307 305 299 300 308 313 310 308 303 298 296 295 295 296 296 297 298 297 297 297 297
294 295 296 297 299 298 295 294 294 294 294 293 293 295 298 297 298 307 313 303 298 298 298 298 299 298 299 300 299 300 300 299 299 298 296 295 294 298 300 296 299 301 298 303 306 299 299 300 299 299 297 297 298 297 297 298 299 302 299 297 299 300 302 304 307 310 309 308 304 298 298 305 309 309 307 302 297 296 295 295 295 296 297 297 297 297 297 297
293 295 295 295 296 296 296 294 294 294 294 293 294 295 297 300 307 315 309 300 297 297 297 298 299 298 300 303 303 299 299 299 297 297 297 295 294 296 297 295 299 303 299 301 302 298 299 302 301 300 298 297 297 297 297 296 298 299 298 302 306 304 306 307 306 307 307 307 304 297 297 302 307 308 306 301 297 295 296 296 296 296 296 297 297 297 296 296
293 295 295 295 295 295 295 294 294 294 294 294 295 297 299 304 318 321 301 296 297 298 299 299 299 300 299 301 301 299 300 301 298 299 299 295 294 295 296 296 298 305 306 302 301 300 301 303 301 299 300 297 297 299 297 297 299 299 299 305 307 304 305 307 309 309 305 303 303 298 297 301 306 307 305 304 300 297 297 296 296 296 296 296 297 297 297 297
293 295 296 295 295 295 295 295 294 293 294 296 296 300 307 310 313 310 301 298 299 300 299 298 299 300 299 299 299 297 300 301 298 298 298 296 294 294 295 295 294 304 309 302 300 302 302 300 297 300 301 297 297 302 302 301 301 298 300 304 306 308 306 305 310 308 303 302 299 296 298 301 305 307 305 304 302 298 297 297 296 296 296 297 297 298 298 298
294 297 297 296 295 295 295 294 294 293 295 298 300 306 318 318 305 300 301 301 297 296 296 298 300 299 299 300 300 297 298 298 297 297 296 297 297 296 296 294 292 298 301 299 299 302 304 301 298 300 302 297 297 301 301 301 300 299 301 302 305 310 306 305 308 300 299 303 298 294 298 302 304 304 303 302 300 297 296 295 295 296 297 297 298 299 300 299
296 299 299 297 296 295 294 294 293 293 295 299 305 309 311 310 304 298 300 300 296 296 298 299 300 299 299 299 298 297 298 297 297 297 298 300 301 300 297 295 294 295 297 300 299 298 301 301 298 298 299 298 298 296 296 299 299 300 302 301 303 305 302 302 304 299 299 303 299 296 299 302 302 302 302 301 297 296 295 294 295 296 297 299 299 298 299 298
298 299 299 298 296 294 294 293 293 294 297 303 313 314 305 304 305 302 302 301 298 300 299 297 300 301 300 299 298 297 297 296 297 298 299 300 299 298 297 295 294 293 295 299 297 295 298 298 298 298 297 296 297 296 296 298 299 300 301 301 302 301 301 302 299 297 297 299 302 303 300 300 300 300 301 299 295 295 294 294 294 295 296 297 296 295 296 297
297 298 299 298 296 294 294 294 296 296 298 310 321 311 304 302 300 301 303 300 300 301 298 299 303 303 302 302 300 299 297 295 297 300 300 297 296 297 296 295 294 293 295 297 296 296 299 298 298 298 298 296 295 295 297 298 299 301 301 301 299 297 301 301 296 295 295 297 302 301 298 300 299 299 301 298 295 294 294 293 293 293 294 294 294 294 294 297
297 299 299 297 295 295 294 296 299 297 300 315 322 305 298 296 295 300 302 300 299 300 300 300 300 300 302 302 300 299 299 295 296 301 300 296 296 296 296 296 294 293 293 295 296 295 296 300 299 296 297 298 295 295 299 299 298 301 301 299 296 296 299 298 296 299 299 299 300 298 297 299 298 298 300 298 296 295 293 294 293 293 293 292 293 294 293 296
296 298 299 296 295 294 295 298 299 299 306 318 318 303 296 295 295 298 300 297 297 299 302 303 299 297 300 301 298 297 298 297 298 301 300 298 297 295 295 296 295 294 293 294 298 296 293 299 301 296 296 298 298 299 301 299 298 299 298 296 296 297 299 298 296 299 300 299 300 298 295 295 295 297 298 296 295 294 293 293 292 292 292 292 292 293 292 295
296 300 301 296 294 294 296 298 297 303 316 319 311 301 296 296 296 297 298 297 297 299 301 300 298 296 298 299 297 296 297 297 297 299 298 297 297 294 293 295 294 295 294 293 296 296 293 297 302 298 294 295 299 302 301 298 299 301 299 298 300 299 298 297 295 296 298 298 299 298 297 298 298 299 298 295 294 292 292 293 292 292 292 291 292 292 292 294
295 302 303 295 294 295 296 297 299 309 317 308 301 299 296 296 297 297 297 297 297 298 298 298 297 296 297 297 295 294 296 297 297 297 297 296 297 296 294 295 293 294 295 295 295 295 293 295 300 300 296 296 298 299 298 296 297 300 300 298 299 298 297 296 294 295 297 299 299 299 299 300 301 299 296 295 294 292 292 292 292 292 292 291 292 292 292 293
297 304 303 295 295 296 297 300 301 303 305 298 297 298 297 297 298 297 296 297 296 296 297 298 297 296 297 297 296 295 296 298 297 298 297 295 296 297 295 295 293 292 294 297 295 294 294 295 297 298 299 299 298 296 295 296 296 298 298 295 295 297 297 297 296 295 296 296 298 298 297 297 298 296 295 294 293 292 292 292 292 292 291 291 291 292 292 292
301 304 299 295 295 295 301 306 297 294 300 299 296 297 298 299 298 296 296 296 295 295 296 297 297 297 298 298 297 297 298 298 297 297 297 295 296 297 295 294 293 293 294 294 293 293 294 294 295 298 297 296 295 294 294 294 295 297 296 294 294 295 296 297 297 297 295 294 295 294 295 296 295 294 294 294 292 292 292 292 292 291 291 291 292 292 292 292
304 302 297 295 294 296 303 305 298 295 298 297 294 295 297 298 298 297 296 295 294 295 297 297 296 296 297 296 296 297 297 296 295 296 296 295 296 297 295 295 293 293 293 293 293 294 295 294 295 297 297 294 294 294 294 294 295 295 294 294 294 294 294 295 295 294 294 294 294 294 294 296 295 295 295 294 292 292 292 292 292 291 290 291 292 292 292 291
301 298 297 295 294 299 305 304 303 300 296 295 295 295 295 295 296 297 297 296 294 295 297 297 295 295 296 296 295 294 294 294 293 294 294 294 295 295 296 296 293 292 293 292 293 294 294 294 295 296 298 299 299 298 297 297 297 294 292 293 293 292 292 292 291 291 293 293 294 294 294 294 297 297 294 292 292 292 291 291 291 291 291 291 292 291 291 290
298 298 299 297 293 298 302 301 304 302 295 296 297 295 295 296 294 295 295 295 295 295 296 294 294 296 296 295 295 294 293 293 293 293 292 293 295 294 295 295 293 292 293 293 294 295 294 294 295 296 297 298 300 298 296 296 294 292 292 292 292 292 291 291 292 292 292 291 291 293 294 293 295 296 293 292 292 291 291 291 290 291 291 291 291 291 290 290
301 302 303 301 297 297 296 294 297 300 298 299 298 295 296 297 294 293 294 295 295 295 295 295 295 297 296 295 296 295 294 292 292 293 293 294 295 294 293 294 293 293 294 293 295 296 294 293 294 295 296 295 295 294 292 292 292 291 292 291 290 291 291 291 292 292 292 291 290 292 292 291 292 292 291 292 291 291 291 290 290 290 291 291 290 290 290 290
300 302 301 301 300 300 297 294 296 299 299 300 298 295 296 297 294 293 293 294 295 295 295 295 295 296 295 295 295 294 293 292 291 293 294 294 295 293 292 292 293 294 295 293 294 295 294 294 293 293 294 293 291 291 290 290 290 290 291 290 290 290 291 291 291 291 291 292 291 291 291 291 291 291 291 291 290 290 290 290 290 290 290 290 290 289 289 288
297 298 294 294 298 299 296 295 297 298 298 298 296 295 296 296 293 294 294 293 294 295 295 295 295 296 296 295 295 294 293 292 292 292 292 292 293 293 293 292 292 294 295 293 293 295 294 293 292 291 292 292 290 290 290 289 289 289 289 290 289 289 290 290 290 290 290 291 291 291 290 290 290 290 290 290 290 290 290 290 290 290 289 289 289 288 287 287
295 296 292 291 296 297 295 293 295 297 298 298 296 295 296 296 295 294 294 294 295 295 294 295 296 297 297 295 295 295 293 293 293 293 292 292 293 293 294 293 291 292 294 292 292 293 293 293 292 291 291 291 290 291 290 289 289 289 289 289 289 289 289 289 289 289 289 290 290 290 290 290 290 290 290 290 290 290 290 290 290 289 289 289 288 287 287 286
295 297 294 293 295 296 295 294 296 299 299 297 297 295 294 296 295 293 293 296 298 295 293 296 297 297 297 295 294 295 295 295 295 294 293 293 293 293 294 294 293 292 292 292 292 292 292 293 293 291 291 291 291 291 291 290 289 289 289 289 288 289 289 289 289 289 289 289 289 289 289 289 289 290 290 290 291 291 291 291 290 289 289 288 288 287 286 286
295 295 294 297 298 294 294 295 296 299 298 297 297 295 293 295 295 294 294 295 297 297 295 296 298 296 296 295 294 294 295 295 295 295 294 294 294 294 294 293 293 293 292 291 293 293 292 292 293 292 291 291 291 291 291 291 289 289 289 289 288 288 288 289 289 288 289 290 289 289 289 289 290 290 291 291 291 291 291 290 289 289 288 288 287 287 286 286
293 292 292 299 300 294 295 296 295 298 300 299 299 296 294 296 295 294 294 294 295 297 296 297 297 295 295 296 295 295 296 296 295 295 296 295 294 295 295 294 294 294 292 291 292 293 292 292 293 292 291 291 291 291 291 290 289 291 293 292 291 290 290 290 289 289 289 289 289 290 290 290 290 290 290 290 290 290 290 290 289 288 288 287 287 287 286 286
Wind_Speed
19 19 19 19 19 18 16 16 16 17 18 19 18 16 14 14 16 18 19 20 18 18 15 14 15 16 20 12 5 3 11 32 42 45 40 32 35 34 33 32 31 32 30 30 33 29 23 22 24 23 17 8 5 5 5 5 5 4 4 4 4 3 3 3 3 2 1 2 6 8 7 8 8 9 7 5 10 12 10 10 8 9 10 11 12 9 12 13
19 19 19 19 19 17 16 16 15 16 18 18 19 18 17 15 16 18 19 19 18 18 16 14 16 20 24 11 8 10 3 23 34 37 39 36 36 34 32 33 31 31 30 30 31 26 15 12 16 15 9 6 5 6 6 5 5 5 4 5 3 2 1 1 1 2 2 3 6 7 6 7 7 6 6 5 10 13 12 10 10 12 12 17 21 22 25 28
19 19 19 19 19 17 15 14 14 15 16 17 18 18 18 17 17 18 19 21 21 19 16 14 17 25 28 7 8 11 9 11 24 28 39 39 35 33 32 31 31 32 32 28 24 22 14 8 11 9 7 7 5 6 9 6 4 5 4 6 3 1 1 1 3 3 3 3 4 7 6 6 8 5 4 3 7 12 11 9 9 12 13 16 19 24 29 32
19 19 19 19 18 17 15 14 13 13 14 14 15 16 16 17 17 17 19 23 24 22 18 13 15 26 30 10 8 8 8 3 15 25 38 37 33 31 30 30 31 33 33 31 26 25 21 14 11 8 8 7 5 6 9 6 3 4 4 5 1 3 1 5 5 5 5 3 3 5 7 9 9 5 5 6 8 9 8 8 11 14 16 17 17 22 28 30
19 19 19 19 18 16 15 14 12 11 11 11 12 13 14 15 15 15 18 21 24 25 21 14 10 17 30 23 8 7 3 5 12 29 38 33 30 29 28 30 31 32 34 35 31 29 29 20 11 7 6 6 6 6 5 6 3 4 3 3 2 1 3 6 6 6 6 4 5 7 8 6 7 5 7 10 9 6 6 9 15 18 17 18 18 22 27 27
19 19 19 18 17 15 15 14 12 11 10 9 10 11 12 13 12 12 14 18 21 25 25 18 8 6 18 29 27 17 9 5 13 30 35 30 27 27 27 29 31 32 34 36 32 26 23 16 11 7 4 5 7 6 3 6 3 5 3 2 4 4 3 5 6 6 5 7 8 5 4 4 6 8 7 11 11 8 9 12 16 20 21 25 26 25 24 22
19 19 19 18 16 15 14 14 12 12 11 10 10 10 11 11 10 10 11 16 18 22 27 24 13 3 3 12 26 29 16 3 17 30 32 27 24 26 27 29 31 33 31 30 28 19 12 13 12 5 2 6 5 6 4 3 4 6 3 4 6 4 4 5 5 4 6 11 6 3 4 6 9 7 8 15 16 14 15 17 20 24 28 32 28 23 22 22
18 18 18 17 16 15 14 13 13 12 12 12 11 11 11 10 9 9 11 15 17 20 25 29 21 6 1 3 4 15 12 10 24 30 29 24 23 25 26 29 31 33 30 23 20 14 10 12 11 4 4 5 3 5 5 4 6 6 3 4 5 4 5 6 5 5 7 9 5 6 8 7 5 6 13 18 15 16 17 20 22 25 28 27 23 21 22 23
18 18 18 17 15 14 14 14 14 14 14 13 13 12 11 10 10 11 13 14 16 18 20 27 30 17 8 1 2 9 10 18 25 28 27 22 22 24 25 29 30 30 29 25 22 19 12 7 6 4 3 2 3 4 5 5 5 3 2 3 4 5 6 6 8 8 7 6 7 11 13 11 9 7 14 15 11 15 19 20 19 21 24 20 19 21 22 23
17 17 17 16 14 14 14 15 16 16 16 15 14 12 11 10 10 10 11 12 14 15 16 19 25 29 24 8 4 11 12 22 26 26 25 21 21 24 27 30 29 26 25 26 24 19 9 4 5 2 3 0 3 4 4 4 2 1 2 2 5 7 8 10 11 11 5 6 10 12 15 17 13 9 11 10 9 15 20 19 17 19 19 18 17 18 24 26
17 17 17 15 13 13 15 16 17 18 17 15 13 12 11 9 8 7 8 10 10 12 15 15 16 24 28 20 13 10 15 23 26 27 25 22 23 27 30 29 27 25 21 22 24 20 11 7 7 2 2 2 3 4 6 5 2 2 2 4 9 11 14 15 13 12 6 6 7 8 18 21 15 12 8 6 10 17 19 17 17 18 15 15 17 16 22 25
16 16 16 14 12 13 15 16 17 19 18 16 13 10 9 8 6 6 7 7 8 8 10 14 16 12 13 19 15 8 18 24 26 27 26 24 25 26 28 26 25 24 20 17 22 26 20 14 11 7 3 2 2 4 6 6 3 5 6 7 11 13 16 16 13 12 6 6 7 2 15 19 13 10 7 6 10 18 19 17 15 15 13 13 15 14 18 23
16 16 16 13 11 11 13 15 17 19 20 17 14 10 8 7 6 6 8 7 6 8 7 8 13 13 9 8 10 17 22 24 27 27 26 27 24 21 22 23 25 26 23 19 21 25 23 19 13 9 6 4 2 3 3 5 5 6 8 8 7 9 11 12 12 13 9 10 10 6 7 9 9 9 8 8 11 20 19 15 14 13 12 12 13 13 14 22
16 16 15 13 10 9 10 12 15 18 21 20 16 11 6 6 8 8 9 9 5 6 10 8 5 9 12 5 6 23 25 23 29 30 29 30 26 22 20 20 24 26 25 23 24 22 20 23 20 11 8 5 2 3 4 6 6 4 6 6 5 5 5 8 11 14 10 9 9 17 8 3 7 10 9 9 11 21 16 13 14 12 12 12 12 13 13 19
16 15 15 13 9 6 6 8 11 15 18 21 20 18 11 4 6 9 10 11 10 5 6 12 9 5 8 4 5 22 28 28 31 32 30 28 26 24 21 19 18 21 25 24 24 22 20 24 23 10 6 7 5 5 5 5 6 4 4 4 5 4 4 7 11 13 9 7 9 16 7 2 7 10 9 9 11 19 16 13 13 12 13 12 11 12 11 14
16 16 15 14 10 6 3 3 6 9 13 16 20 24 22 10 2 5 8 9 12 11 6 10 12 7 6 2 8 18 27 28 28 29 26 23 23 21 23 20 13 13 19 23 24 23 20 17 11 6 8 12 10 5 5 6 5 5 4 4 4 5 5 6 9 12 8 8 12 12 7 2 5 8 8 9 11 17 15 13 13 12 13 11 11 11 10 12
15 15 15 15 13 8 4 3 1 3 7 10 12 20 28 24 7 4 2 1 5 11 13 13 10 7 7 6 8 11 18 22 25 28 25 20 20 24 25 17 14 14 8 14 22 19 15 9 3 4 9 10 8 5 7 7 5 5 4 4 2 4 5 4 5 10 10 11 11 12 10 5 4 6 9 10 11 15 14 12 12 11 11 10 10 10 11 12
15 14 15 16 15 12 8 6 6 5 2 1 3 6 16 26 24 17 10 3 1 4 10 17 12 6 5 10 7 10 18 19 22 28 26 18 14 21 24 13 13 17 6 6 15 13 7 4 4 8 9 9 8 7 7 3 2 4 4 3 2 3 6 5 4 5 8 12 10 11 10 7 5 6 9 9 10 15 13 10 11 11 11 11 10 11 11 12
15 13 13 15 15 15 13 9 6 6 8 7 4 3 3 8 19 28 28 18 9 5 3 9 8 5 2 7 9 15 16 13 18 27 30 23 12 13 23 16 8 10 6 3 8 9 5 3 8 10 8 8 7 6 5 3 3 5 4 4 3 4 3 3 4 4 4 11 10 9 9 6 7 7 8 7 9 13 10 9 10 9 10 10 10 10 10 12
15 13 12 14 15 16 17 15 12 7 4 7 5 3 3 3 5 11 18 17 11 10 6 1 3 4 2 5 11 18 12 6 14 26 32 28 13 9 18 14 5 7 7 4 5 6 5 9 10 7 5 7 7 6 3 4 4 6 5 5 6 5 3 3 5 7 2 8 6 5 8 7 6 7 6 5 8 12 10 10 10 9 9 9 10 10 10 10
15 13 10 12 14 16 18 18 17 14 7 2 2 5 3 2 4 1 5 9 8 10 11 4 3 4 3 4 10 17 7 3 12 24 33 28 12 6 10 10 7 10 9 6 3 5 5 11 8 6 7 7 6 5 3 5 7 7 5 5 7 6 4 4 4 8 5 6 3 3 8 6 5 5 5 5 10 11 8 9 10 9 9 8 9 10 9 7
14 13 10 9 11 14 16 17 17 14 8 7 11 13 6 3 4 1 0 4 5 7 8 6 6 4 5 3 12 17 5 4 12 21 32 27 13 7 4 6 9 7 8 6 4 5 9 10 8 8 7 6 4 6 6 7 8 7 5 5 5 4 4 5 4 8 7 4 1 1 7 5 4 4 5 7 9 7 6 8 7 8 9 9 9 9 8 7
14 13 10 7 8 10 13 15 13 10 11 16 18 13 6 4 3 1 1 4 2 4 3 5 5 6 7 6 16 16 5 6 6 13 27 21 9 5 2 5 8 4 7 10 8 8 7 5 8 8 6 5 7 10 9 7 6 6 5 4 2 3 3 2 4 8 7 2 3 2 5 3 4 5 5 6 6 5 6 7 6 7 8 8 7 6 7 8
12 12 11 8 6 6 9 11 12 12 15 18 19 13 5 2 2 2 2 3 2 1 0 2 3 3 3 5 16 11 2 4 1 9 23 16 5 3 3 3 5 5 5 8 11 10 5 3 6 6 7 8 8 11 11 6 4 4 3 5 1 3 1 3 4 6 5 3 2 3 4 2 4 4 4 5 5 5 6 7 7 7 6 6 6 5 6 6
11 10 11 10 7 4 5 8 10 12 11 12 14 10 4 1 2 1 3 4 3 2 1 0 1 6 5 8 17 7 1 3 3 8 18 14 6 2 3 1 3 6 3 4 8 8 4 2 4 7 8 9 7 8 9 5 3 4 1 4 0 4 4 4 4 3 3 4 3 3 2 3 3 3 3 4 5 5 5 6 7 6 5 5 5 6 6 5
10 9 10 11 9 4 2 5 8 7 6 9 9 6 2 1 2 1 2 5 4 3 3 3 2 9 9 11 15 5 3 4 5 12 18 16 7 1 3 4 2 4 2 2 4 3 3 4 5 6 5 7 6 4 5 4 4 3 1 3 2 3 3 2 2 3 3 0 2 3 4 2 3 1 2 2 4 6 5 6 6 5 5 5 5 5 5 5
10 10 10 11 11 8 3 3 6 5 4 5 6 4 2 2 1 1 2 5 4 2 4 4 3 9 9 10 14 3 3 8 9 13 19 18 10 1 4 4 2 4 2 2 4 1 3 6 6 7 6 7 6 4 4 4 3 2 2 5 4 2 3 2 3 3 1 1 2 4 3 2 2 2 3 1 5 6 6 5 5 4 4 5 4 4 5 5
9 10 9 10 13 13 8 4 5 6 4 4 4 2 3 3 3 2 5 4 3 1 2 3 3 7 7 9 14 6 2 7 3 9 18 17 12 3 4 4 1 4 4 5 3 2 2 5 6 7 8 6 4 4 5 2 1 5 5 7 5 3 4 4 4 2 1 2 2 6 4 2 2 4 3 3 4 4 5 4 4 4 4 4 4 4 5 5
8 8 9 8 9 10 10 9 9 8 6 4 3 2 4 3 2 4 6 2 2 2 0 2 3 6 7 7 10 6 2 4 2 7 14 13 13 6 3 2 1 3 7 6 5 2 1 1 2 4 5 5 5 6 4 0 2 7 7 6 2 1 2 3 3 2 2 4 0 5 4 1 2 4 2 3 3 1 4 4 4 3 2 3 3 4 4 4
7 7 9 8 8 8 8 10 12 9 7 5 1 4 5 2 4 5 2 1 1 1 1 3 3 4 7 6 6 5 5 4 2 6 7 5 10 9 3 1 3 4 6 6 4 1 4 3 1 3 2 2 6 5 1 2 4 7 5 4 3 4 3 3 2 2 4 3 3 3 4 1 0 3 3 1 1 3 3 3 4 4 3 3 3 4 4 4
7 6 8 9 10 10 7 8 12 10 8 4 2 4 3 1 5 6 1 1 1 2 2 4 3 4 7 5 4 5 5 5 5 6 5 4 8 9 5 4 4 4 5 5 5 5 6 5 3 2 2 3 2 2 2 2 5 5 3 3 2 3 4 3 5 4 4 2 5 4 4 1 2 3 3 3 3 4 4 2 3 2 2 3 4 4 4 4
6 5 7 8 10 11 8 8 11 10 7 3 2 2 3 2 3 2 1 3 1 2 2 1 3 3 5 4 4 5 4 4 5 5 4 4 6 6 6 4 2 3 5 4 4 5 4 3 4 5 4 5 4 2 4 5 7 7 5 5 3 2 4 2 3 3 0 4 4 1 4 1 3 4 4 5 4 5 5 4 4 2 1 2 4 5 4 4
5 5 6 9 10 10 10 10 11 9 6 2 2 3 6 4 1 2 2 2 0 2 1 0 2 2 2 3 4 5 3 3 5 4 2 2 4 4 5 6 5 3 1 2 3 5 4 4 7 6 3 4 4 4 3 4 7 7 4 4 3 2 3 2 3 3 2 5 4 2 3 1 2 2 4 6 5 5 3 2 1 2 1 2 5 5 5 4
4 6 6 8 10 11 12 12 10 8 5 2 3 4 4 0 2 1 2 3 1 2 1 0 2 3 4 4 2 3 2 2 4 5 4 3 4 4 4 7 8 4 2 3 3 3 3 4 5 4 3 4 4 3 2 1 3 4 0 3 3 3 3 2 3 2 3 5 6 4 1 2 1 1 5 6 5 2 2 3 3 1 2 4 5 5 5 5
3 5 6 8 10 13 14 11 9 7 3 2 5 4 2 3 3 2 1 3 1 1 1 1 2 4 4 3 2 2 1 1 3 5 4 4 3 2 2 4 5 3 3 3 1 0 1 4 5 3 3 3 5 3 1 3 1 2 1 4 2 2 3 1 3 3 1 2 5 3 1 3 1 1 3 4 4 2 5 4 4 4 4 4 5 6 6 5
3 4 6 8 10 14 14 10 8 6 2 4 6 3 2 3 2 2 2 1 1 1 0 3 3 4 3 4 3 4 2 1 3 4 4 3 1 1 1 1 2 3 3 2 1 2 2 3 4 4 3 3 3 3 1 2 0 1 2 2 2 2 5 2 1 1 3 2 3 2 2 4 2 0 1 3 3 4 5 4 4 4 5 6 5 6 6 6
4 3 5 9 13 14 11 9 8 4 2 5 5 1 3 2 2 2 1 1 2 2 3 2 2 2 1 2 3 5 4 2 3 3 2 3 2 1 1 1 1 2 1 2 1 1 0 3 4 2 2 4 3 0 1 2 2 2 1 2 1 2 3 3 1 3 4 1 4 2 1 4 2 1 2 3 4 5 5 4 5 5 6 7 6 6 6 6
5 3 3 10 16 13 10 10 7 2 3 6 4 2 2 1 1 1 0 0 1 3 4 2 0 0 1 1 2 4 3 2 3 3 1 1 1 1 1 1 0 1 1 2 1 1 0 3 5 1 1 6 5 4 2 5 3 3 1 2 2 2 0 1 2 1 2 2 5 4 2 3 3 4 3 1 1 3 5 4 5 6 6 6 6 6 7 7
5 2 2 11 16 11 10 10 5 2 5 5 3 2 2 1 1 0 1 0 2 3 3 2 1 2 1 1 1 3 3 2 1 2 1 0 0 0 2 0 2 3 3 3 3 1 1 1 4 3 1 4 5 4 1 4 5 3 2 2 2 3 3 0 1 2 2 1 4 5 3 2 5 5 5 5 4 1 4 5 4 6 6 5 6 6 6 6
4 3 1 11 15 8 8 8 4 5 5 3 3 2 1 1 0 1 2 0 1 1 1 3 2 2 1 1 0 1 2 2 1 1 0 0 0 1 0 1 2 4 4 4 3 1 2 2 3 5 4 2 2 1 1 2 3 3 3 3 3 2 1 1 1 2 3 2 2 3 5 4 5 3 5 6 5 3 3 6 5 6 6 6 6 5 5 5
3 3 2 11 13 5 4 7 6 5 3 2 1 1 1 2 2 2 4 3 2 1 1 4 4 3 3 2 1 0 1 1 1 1 0 0 1 1 1 2 1 3 3 4 3 1 1 1 1 4 4 2 3 3 1 3 3 2 1 1 0 1 2 2 2 2 1 2 4 2 5 7 5 2 4 6 5 3 5 5 5 7 7 7 6 5 5 5
4 2 2 11 11 3 4 6 3 3 3 1 0 1 1 2 3 1 3 3 3 1 2 3 3 2 3 2 1 1 2 1 0 1 0 1 1 1 2 3 3 1 2 2 2 1 1 3 1 4 4 4 7 6 2 1 1 3 2 1 2 1 3 4 2 3 1 1 1 2 3 7 5 2 2 4 2 3 5 6 7 9 8 8 7 5 5 5
3 2 2 12 9 1 6 5 2 3 2 2 1 1 2 2 2 1 1 2 2 1 3 2 1 1 2 2 2 2 3 1 1 1 0 1 2 3 2 2 3 1 2 1 2 1 2 3 1 4 4 5 6 5 3 2 5 5 2 2 3 2 2 4 4 2 1 2 1 2 4 7 5 3 1 1 3 6 7 8 8 9 9 7 6 6 6 6
1 3 2 11 8 1 4 3 1 2 0 1 2 2 2 2 2 1 1 0 1 2 2 1 1 0 1 2 3 3 4 2 1 1 1 1 2 1 1 1 1 1 1 1 1 1 1 1 1 2 5 6 6 5 5 5 4 1 3 2 2 3 3 2 2 3 1 5 6 5 6 7 3 3 4 6 9 10 9 7 8 9 8 6 5 5 6 6
1 1 2 8 10 7 4 3 5 4 2 2 4 1 1 2 1 0 1 1 1 2 2 1 0 2 2 2 3 1 2 1 1 1 1 1 2 1 0 1 1 2 1 3 2 2 1 2 3 3 1 3 4 3 3 3 3 3 2 0 1 1 1 1 1 1 3 5 6 6 6 7 5 6 9 11 10 10 9 9 9 8 7 6 6 6 6 7
2 1 2 6 9 8 3 1 4 5 4 4 3 1 2 2 1 1 1 1 1 2 2 1 1 2 3 2 2 1 1 0 1 1 1 1 3 2 0 1 1 2 3 2 1 4 2 0 2 5 5 5 5 5 4 1 2 5 8 7 4 4 4 3 3 4 4 2 5 9 11 14 14 12 11 10 9 9 11 11 10 7 6 6 6 6 7 7
1 1 1 1 3 4 4 3 4 4 3 4 3 2 3 3 0 1 1 1 0 2 2 1 1 2 1 2 2 1 2 1 1 1 2 2 3 3 1 2 1 3 2 1 2 3 3 2 3 6 7 6 5 5 5 3 3 7 12 12 8 6 5 6 7 7 3 1 7 9 9 13 17 14 12 11 11 11 12 11 9 7 6 7 7 7 8 8
2 1 1 0 0 1 2 2 3 5 4 3 2 2 3 3 2 2 0 1 1 2 2 1 1 2 4 4 3 1 2 0 1 2 2 2 2 2 3 1 1 1 2 2 3 3 4 3 4 4 4 6 6 6 6 5 5 7 12 14 10 8 8 10 13 13 7 6 12 9 7 12 17 17 16 14 12 12 12 10 8 7 7 7 7 8 9 9
2 2 1 2 1 3 2 1 4 6 5 4 2 2 4 5 4 3 1 2 1 1 1 1 3 4 4 4 3 3 3 2 1 3 2 2 2 0 1 2 1 2 4 3 2 2 3 3 4 2 4 7 6 8 9 7 6 7 12 14 10 9 11 13 15 15 12 14 18 17 17 18 18 18 17 15 12 10 9 7 7 8 8 8 7 9 10 11
1 2 1 3 3 1 0 1 4 5 3 2 1 2 4 6 5 3 2 4 3 1 1 3 5 5 5 4 4 3 5 5 3 3 4 2 1 1 2 2 1 1 3 2 1 0 1 2 2 2 4 7 6 7 8 7 5 7 15 17 13 11 12 14 14 13 11 13 17 17 17 18 15 12 11 11 9 6 6 8 9 9 9 8 9 10 11 11
2 2 3 4 3 1 0 1 3 4 2 0 2 3 4 5 6 4 2 3 5 5 5 5 5 3 3 4 5 6 6 5 5 5 6 5 3 3 2 2 4 3 1 2 1 1 1 2 1 2 3 5 3 4 6 7 7 10 16 19 14 10 9 9 9 8 8 9 11 10 11 12 10 6 6 7 6 5 8 10 10 10 9 8 10 11 11 12
3 2 2 4 2 0 1 1 2 3 2 2 3 4 3 4 5 5 2 0 2 4 6 7 6 3 2 4 7 8 6 6 6 6 5 5 4 4 3 4 6 6 4 4 2 1 3 2 1 1 3 4 1 1 3 7 9 9 10 10 8 6 6 5 6 7 8 7 6 6 8 10 9 8 9 10 8 8 9 9 9 10 10 9 10 11 12 12
Wind_Direction
22 21 19 20 26 31 37 41 46 49 48 47 44 44 39 37 31 27 29 27 27 22 18 13 12 8 355 333 253 185 33 25 25 25 25 11 356 353 353 357 359 359 2 8 10 10 11 10 6 16 36 43 10 348 351 8 12 34 77 73 78 53 29 24 3 352 11 339 324 329 353 16 4 351 343 345 23 37 43 45 52 49 41 38 36 36 39 38
24 26 21 19 28 38 44 46 51 52 51 49 45 43 39 38 32 31 35 34 32 24 19 13 13 5 352 336 224 205 99 24 23 24 17 3 355 355 359 3 3 5 10 11 8 5 1 345 347 8 36 40 4 358 9 4 18 46 90 73 63 62 12 323 356 330 359 324 309 332 348 16 12 344 341 14 23 26 38 31 35 45 41 42 41 45 46 43
28 31 26 23 31 40 47 49 53 54 53 50 46 43 40 39 36 39 42 41 38 29 21 14 19 12 1 356 190 191 194 10 24 16 3 359 356 359 5 7 6 10 15 14 10 9 8 352 354 18 50 43 3 18 32 5 18 45 70 67 26 277 236 322 10 347 329 303 327 343 334 8 5 346 354 25 33 28 31 20 26 40 40 43 41 44 46 44
30 30 28 28 34 43 49 51 52 53 51 49 44 41 40 39 40 45 46 43 40 35 26 14 21 22 20 40 165 175 195 14 24 357 352 358 0 4 9 8 8 12 16 19 20 21 26 31 28 39 54 40 0 31 36 356 25 45 57 100 269 254 52 354 351 347 337 328 355 346 356 10 346 343 17 24 42 31 16 4 23 43 44 44 41 40 43 43
31 30 29 31 36 44 50 50 48 46 42 41 39 35 35 39 42 45 44 40 37 36 31 21 16 27 35 50 107 179 180 56 357 342 350 359 3 8 9 8 8 9 13 21 22 23 27 29 33 43 48 40 13 30 30 351 51 67 42 143 245 341 47 345 340 354 346 359 31 22 22 356 328 8 26 37 50 12 352 9 35 51 49 46 44 41 42 41
31 29 30 32 38 47 50 49 44 38 31 26 26 24 29 36 38 42 41 35 34 35 33 31 17 17 42 52 66 78 88 84 324 337 352 359 5 8 9 8 8 8 11 18 20 21 23 21 35 44 32 49 29 28 25 346 40 85 26 344 345 13 26 336 340 350 0 37 35 16 12 338 15 34 17 34 37 7 20 38 51 55 50 49 46 42 41 39
31 29 31 33 41 50 49 46 41 35 29 25 26 25 29 33 36 42 37 33 36 36 34 35 32 17 46 48 55 62 81 62 333 344 353 360 8 7 9 9 7 8 9 16 19 17 17 23 35 31 29 58 27 4 8 358 51 83 64 344 346 0 1 329 327 344 36 47 16 331 36 17 29 38 17 29 33 37 50 52 54 54 49 48 45 41 40 40
31 31 31 36 46 52 48 45 39 35 34 35 37 36 38 40 48 52 47 44 41 39 36 36 40 40 219 246 31 55 62 356 342 350 357 2 9 7 6 7 6 6 7 16 21 16 17 28 28 13 43 49 22 346 349 28 48 58 57 336 335 353 348 340 0 23 50 45 3 33 46 4 4 51 41 35 39 51 57 51 49 52 49 46 43 41 38 38
32 32 32 40 50 53 51 48 45 45 45 46 46 45 50 56 67 69 61 53 42 40 36 38 43 47 62 193 225 60 20 344 349 356 3 3 2 5 6 6 5 3 6 10 18 23 23 30 16 14 65 35 34 6 351 35 40 34 27 341 5 18 1 10 23 21 39 36 19 46 43 6 356 49 48 34 39 53 54 51 47 51 50 45 43 40 37 37
33 33 35 43 52 56 57 56 54 54 52 52 51 51 59 69 79 77 62 48 39 37 35 40 43 48 55 42 55 63 352 346 5 6 9 7 2 8 12 12 8 5 6 5 16 25 24 18 329 308 141 60 10 359 11 41 18 16 19 35 61 52 32 30 23 7 15 42 35 56 53 25 15 54 56 21 35 57 56 51 45 52 53 47 47 42 40 39
33 35 38 45 56 60 62 61 59 58 56 55 53 55 63 76 82 69 48 36 35 36 37 41 39 45 50 46 65 60 351 0 13 12 15 12 10 13 14 16 15 15 10 5 14 18 16 7 342 356 97 5 354 352 20 16 355 57 61 69 56 52 39 27 20 2 0 42 28 64 55 33 25 51 51 1 45 61 60 54 47 52 52 49 50 45 44 41
34 36 40 48 59 65 66 64 61 60 59 55 52 56 63 73 73 52 36 29 32 34 37 43 42 43 44 49 63 28 3 15 16 18 22 16 17 21 21 24 27 27 21 10 11 14 20 15 18 50 17 323 23 9 24 12 33 62 59 63 39 42 36 19 13 356 6 14 329 73 50 26 18 31 7 337 55 63 57 54 47 50 50 48 49 47 46 40
33 36 40 48 60 70 70 66 64 61 59 57 52 51 59 70 70 53 40 31 32 36 33 35 40 46 49 61 48 18 18 23 22 26 25 20 23 31 38 40 39 37 32 27 20 23 33 30 38 58 25 30 35 2 45 22 36 47 45 53 27 40 28 8 8 357 16 5 347 86 68 11 9 14 357 338 54 66 55 49 45 46 46 44 45 46 45 39
33 35 39 46 56 72 75 71 69 65 60 57 52 49 56 76 73 66 53 42 38 44 40 28 23 44 49 91 39 19 22 31 31 26 19 17 20 28 38 44 45 43 40 38 34 36 46 45 50 57 26 26 309 336 36 23 31 32 38 37 15 51 0 340 5 7 28 5 26 84 80 9 16 3 2 351 48 69 59 49 46 44 43 42 43 42 43 39
33 33 36 42 48 61 76 79 75 71 65 59 54 49 43 64 85 77 71 61 54 54 48 38 35 53 56 78 12 13 23 31 26 17 13 14 16 14 14 26 39 44 45 42 39 42 47 50 52 50 14 17 22 30 33 23 27 16 40 28 356 47 342 328 7 13 37 13 35 83 88 46 31 358 357 1 46 68 64 53 47 46 45 42 42 40 42 39
34 33 32 35 39 38 46 80 82 81 72 63 58 51 47 47 129 109 80 67 54 50 51 28 23 59 88 14 338 7 19 15 5 9 16 16 15 8 9 23 28 34 45 38 38 43 42 48 54 49 29 27 30 41 47 34 17 8 55 70 2 32 9 338 8 4 29 45 35 73 110 103 27 353 358 10 43 64 62 54 48 47 45 43 44 40 40 36
36 35 31 29 29 23 358 324 332 97 81 72 66 58 55 54 67 177 211 315 38 45 49 28 17 77 74 360 352 2 356 350 355 10 17 16 21 19 19 24 10 8 28 24 26 30 28 32 27 42 41 31 20 28 56 45 14 2 25 72 28 40 44 3 5 352 17 62 57 69 89 83 30 1 18 22 42 62 61 53 49 48 45 43 44 41 39 36
35 36 34 28 24 21 9 333 298 279 258 87 66 57 56 57 63 69 61 60 6 18 36 20 18 88 36 358 1 330 325 338 359 9 12 16 24 23 21 20 7 8 3 358 16 16 11 16 28 46 36 23 19 27 62 71 61 48 23 50 8 20 56 34 19 346 22 64 68 71 77 68 46 26 33 26 40 63 60 54 53 47 47 43 41 42 38 36
31 33 36 30 26 25 21 13 344 297 266 267 288 291 326 41 57 55 50 55 58 53 41 357 11 102 352 329 328 326 326 339 4 10 11 10 0 10 19 21 14 20 22 346 9 10 4 34 36 39 21 5 5 12 65 99 113 103 85 79 45 16 30 10 2 324 48 70 56 67 82 69 50 34 34 22 41 64 59 54 55 45 47 44 42 41 36 38
27 30 35 32 31 30 29 28 21 2 286 258 270 331 337 338 27 38 32 43 67 83 104 331 15 93 355 310 324 342 343 336 10 14 9 3 348 356 13 9 4 38 31 355 3 349 0 50 39 19 344 339 343 344 44 88 89 98 86 65 56 42 0 328 1 334 12 81 42 58 85 69 54 41 25 14 48 61 54 53 53 47 49 44 44 42 36 40
25 28 34 33 32 33 36 35 27 27 30 211 171 68 75 50 53 32 352 36 61 75 87 57 38 76 344 294 333 353 357 319 5 11 7 4 3 14 3 356 22 34 7 337 345 327 21 52 23 335 327 319 325 336 29 65 59 66 65 50 45 40 344 300 351 347 357 77 23 27 78 57 39 46 26 32 57 55 49 59 56 52 53 48 47 43 37 36
25 26 31 33 33 32 37 42 37 36 48 97 99 88 105 89 61 171 267 72 38 39 69 39 40 37 341 354 357 354 359 347 356 2 4 6 20 39 358 12 47 38 354 353 6 8 45 46 346 327 333 315 340 17 41 54 53 54 51 53 36 5 327 296 332 352 357 69 66 20 80 50 0 36 36 42 61 57 47 62 62 59 59 51 47 42 35 30
25 25 26 25 30 31 36 41 44 50 66 79 79 79 85 48 52 182 88 102 42 355 29 29 49 10 351 28 1 352 27 32 351 347 357 3 18 40 48 36 47 38 13 31 44 47 55 16 326 327 337 351 23 28 38 46 44 49 50 61 24 328 3 338 335 341 341 73 134 101 80 47 345 17 36 35 48 51 44 52 56 58 62 57 49 43 38 33
25 24 23 15 10 24 33 37 48 57 61 69 66 59 57 45 136 144 77 90 56 332 328 52 96 34 1 358 351 348 67 35 1 338 355 5 2 10 54 56 50 38 27 51 63 74 92 280 306 341 2 18 31 28 30 35 26 18 48 81 57 307 337 216 275 320 339 29 63 44 39 5 345 15 24 9 17 34 34 42 47 44 51 57 50 40 34 33
24 23 20 14 2 0 20 29 44 55 59 62 54 42 49 157 198 103 70 68 21 308 310 53 80 28 357 341 351 352 143 33 57 357 353 4 355 346 28 25 71 34 354 60 71 80 85 288 339 12 14 20 33 37 26 22 20 343 6 100 84 277 255 244 279 334 28 17 356 46 54 303 318 20 15 347 11 28 18 32 43 35 35 44 45 33 23 23
22 23 21 18 13 5 15 30 33 49 68 55 38 28 47 187 231 338 73 66 16 305 348 350 1 7 350 342 342 337 75 357 338 3 4 5 354 163 42 348 50 26 308 80 69 88 30 357 26 31 19 25 36 58 32 23 35 339 245 84 27 249 228 278 359 54 85 340 320 71 121 243 312 358 285 324 36 27 8 24 30 24 32 39 43 32 17 14
17 21 24 29 32 40 65 35 23 44 75 35 19 36 79 142 174 357 47 43 7 318 357 335 335 4 354 347 347 24 98 311 315 6 10 7 353 166 60 4 10 5 295 92 51 79 12 353 13 24 21 30 28 21 359 15 51 263 277 24 347 252 190 184 102 101 186 233 326 14 90 158 283 259 259 350 59 25 2 12 7 10 28 31 35 21 15 17
12 17 23 33 42 49 56 46 34 43 43 359 5 69 120 125 148 89 73 66 343 354 27 321 331 2 351 357 14 67 168 306 346 356 352 12 13 14 64 30 59 348 345 97 101 266 350 5 16 24 20 23 7 318 291 311 72 253 294 346 306 242 190 172 129 149 220 68 349 334 23 112 254 271 304 25 59 14 349 349 345 358 15 21 24 6 6 10
12 18 18 26 43 47 47 48 41 29 11 351 8 137 151 126 117 67 73 115 315 356 330 328 343 345 347 3 19 45 357 355 100 320 338 20 21 24 79 7 108 26 3 76 119 251 297 28 94 73 33 2 313 292 271 114 312 278 304 338 316 118 140 136 104 124 54 54 309 312 350 114 252 282 304 41 65 334 301 296 300 315 339 355 359 347 347 354
12 23 22 30 42 38 40 38 26 13 357 352 21 155 153 115 71 63 52 209 39 343 286 6 2 334 360 18 4 6 20 10 317 327 349 21 8 21 78 3 75 76 13 37 67 336 297 308 91 101 51 311 277 285 263 172 280 295 330 7 34 33 35 66 40 73 63 0 247 274 310 166 233 285 229 175 146 191 229 282 291 303 347 350 328 318 324 339
12 26 29 40 42 35 35 20 9 2 354 359 144 140 124 48 62 85 121 266 48 321 359 16 349 359 17 28 4 352 8 350 338 6 16 4 7 17 27 14 36 51 19 16 16 351 338 353 3 315 328 340 312 313 321 285 308 337 20 43 46 350 4 29 354 33 73 297 240 250 307 119 159 266 217 217 244 197 179 211 258 279 350 334 302 298 299 314
19 31 34 42 39 33 30 7 1 1 358 19 135 106 80 35 27 105 269 339 353 306 26 354 312 17 16 19 16 344 343 346 357 38 32 15 30 33 34 27 3 18 12 355 351 349 346 341 324 315 338 16 25 10 334 339 359 9 18 39 61 359 5 15 327 358 135 254 225 243 345 77 208 250 188 185 232 224 209 218 221 181 106 316 295 294 294 305
30 37 39 36 31 25 18 4 0 2 359 36 89 53 75 78 330 211 278 340 79 291 20 26 324 18 32 34 11 336 352 347 347 26 37 43 51 42 36 22 15 43 18 333 356 358 337 307 335 355 354 12 47 62 4 340 358 4 12 42 77 80 38 297 290 328 279 275 279 324 0 282 259 268 181 175 194 216 234 278 252 152 145 298 291 288 296 309
33 34 36 28 24 14 6 360 359 6 4 50 72 57 70 85 234 154 297 263 216 323 14 93 345 16 42 52 350 323 21 347 341 16 10 30 47 21 12 8 11 45 89 41 22 20 5 308 329 2 328 355 37 70 118 154 348 338 292 96 101 130 125 223 242 251 271 291 298 318 12 205 228 214 195 175 169 194 359 15 39 60 301 303 304 307 313 309
10 25 28 21 16 4 359 357 357 7 17 68 64 69 120 238 228 136 236 243 230 334 333 1 49 49 11 355 340 345 52 317 357 31 14 31 64 20 8 349 353 28 77 59 7 10 25 274 274 297 295 15 15 321 139 116 26 302 121 81 46 163 137 174 200 195 222 314 300 300 230 224 234 245 212 156 139 23 14 27 46 24 329 328 328 325 329 308
1 21 27 18 6 355 355 358 358 2 35 82 63 67 193 213 200 155 177 176 133 153 3 353 45 62 353 325 342 349 4 355 23 37 11 21 42 13 49 281 325 28 71 101 35 352 10 278 287 321 314 13 11 300 304 79 118 324 53 70 255 180 126 115 303 353 58 50 286 275 253 293 340 343 281 95 75 10 12 18 20 352 330 342 334 326 326 300
17 31 33 15 2 355 354 355 355 358 58 81 83 150 206 193 176 166 179 138 141 120 90 43 1 38 342 319 326 328 348 0 24 46 20 9 1 338 42 264 255 54 86 130 135 298 330 283 298 6 307 297 326 354 343 20 96 82 53 184 210 52 85 103 47 0 30 10 278 286 259 295 326 210 280 32 39 1 354 359 350 334 338 341 323 312 309 296
13 30 41 13 1 355 353 348 343 355 70 69 84 155 161 160 191 163 187 129 110 72 83 120 189 41 185 164 313 313 350 0 9 41 37 10 346 278 57 332 267 50 22 89 101 262 280 299 300 348 256 294 335 64 15 334 29 81 114 160 102 74 3 47 71 5 356 299 288 308 298 253 228 207 218 198 84 354 329 332 335 320 321 323 311 307 308 309
13 39 27 6 360 354 351 341 332 50 64 72 112 167 152 178 274 280 269 207 105 76 88 163 159 60 112 126 268 301 5 34 25 43 69 85 19 120 95 100 307 345 353 61 101 261 353 58 284 298 289 299 340 47 49 317 342 18 23 7 42 124 167 104 79 157 175 264 285 311 326 257 236 208 178 193 183 117 310 305 303 289 290 302 304 307 312 309
30 72 349 358 360 352 351 356 19 52 57 99 160 168 127 153 168 328 318 2 120 88 112 175 149 83 94 103 25 302 23 50 63 71 135 135 63 301 4 117 325 333 350 39 80 334 8 77 249 297 341 357 338 48 141 271 306 345 20 13 353 5 94 41 7 130 132 162 218 294 299 262 244 207 158 182 179 161 249 266 270 280 295 307 305 308 304 288
54 70 301 355 0 340 0 32 44 53 78 97 105 128 120 135 132 348 343 35 96 222 164 143 136 127 146 134 80 135 63 42 51 78 284 303 74 310 283 132 127 321 359 30 36 24 358 105 232 303 335 346 264 264 269 255 233 190 109 73 335 322 74 77 305 311 88 159 173 208 284 272 254 202 153 161 170 204 250 266 296 311 316 315 310 303 292 288
66 89 301 354 359 345 52 54 42 59 98 101 42 150 113 101 107 31 343 27 62 33 24 94 123 129 146 155 153 150 127 106 148 99 324 269 166 213 248 120 120 301 53 49 322 330 108 100 68 282 273 271 281 296 328 288 149 109 91 96 113 94 92 117 207 268 329 298 165 138 264 270 262 237 140 138 175 267 301 325 328 321 318 318 317 312 308 314
85 169 325 358 351 349 74 61 12 35 67 242 269 22 22 72 109 92 357 17 39 42 22 42 148 126 153 175 144 156 169 142 158 172 192 281 246 228 230 126 111 65 59 66 288 336 69 89 65 287 288 301 306 323 351 20 71 70 5 14 86 91 114 144 174 183 188 249 192 130 249 266 277 284 237 197 273 309 328 332 324 315 314 314 307 305 309 310
122 212 316 3 356 147 96 94 143 77 151 256 53 33 2 49 93 76 96 53 61 107 76 39 236 102 154 153 113 159 195 156 141 207 145 170 235 262 235 162 126 105 94 183 227 279 315 143 103 356 341 339 342 351 343 350 36 39 301 334 91 94 90 109 109 90 208 227 189 179 241 254 263 301 306 309 317 325 322 312 310 308 303 296 291 294 296 295
48 223 276 4 28 73 106 158 146 128 151 107 83 93 36 46 41 176 146 128 74 127 116 29 3 80 89 86 74 102 210 167 182 250 71 173 262 324 13 227 191 123 196 236 207 142 163 175 126 92 32 298 304 296 273 309 340 307 285 216 115 34 4 310 66 112 246 230 182 189 248 262 268 297 306 309 313 311 301 298 303 294 279 279 290 294 295 296
70 96 282 348 27 59 73 120 106 116 156 136 104 140 113 87 301 290 106 94 39 110 91 44 69 76 57 64 75 26 278 63 99 144 135 222 259 288 294 159 188 215 222 240 106 104 104 237 171 161 186 228 253 251 245 297 325 282 281 283 275 264 245 200 166 197 211 225 227 228 249 270 278 283 288 292 293 292 294 299 299 284 272 279 288 289 287 286
79 125 142 339 1 41 43 31 69 103 155 146 125 160 144 130 220 332 60 86 74 89 75 52 112 117 135 152 127 213 234 80 66 158 181 209 246 283 323 93 153 242 188 94 31 91 96 306 234 187 212 244 266 271 271 276 243 254 273 280 271 252 222 193 215 226 183 305 264 233 225 261 277 283 285 287 290 292 293 294 287 274 275 284 286 284 281 279
43 153 145 93 315 79 66 57 93 99 101 102 99 125 137 140 158 175 157 15 26 67 80 29 263 191 190 175 140 169 200 93 303 218 186 208 249 322 341 10 305 320 86 63 343 95 114 264 245 194 237 259 272 282 274 264 250 250 266 270 265 253 233 222 236 237 212 235 257 253 253 268 277 283 286 287 289 289 288 284 275 269 277 283 282 283 287 293
65 111 352 6 111 167 165 124 116 105 99 99 97 132 159 167 180 192 162 91 28 319 123 197 250 221 193 175 133 153 200 186 262 245 196 186 221 227 323 294 311 9 75 82 326 92 112 249 232 203 278 273 266 277 278 275 272 270 272 270 260 248 241 238 247 246 233 239 253 264 274 273 271 273 279 283 282 279 280 279 279 281 283 283 283 288 294 299
109 151 178 42 60 135 175 81 104 98 80 84 116 177 172 170 180 193 163 138 149 226 187 198 224 204 188 189 160 183 216 184 173 212 175 148 265 212 209 226 179 32 59 98 280 3 108 252 210 162 287 283 260 258 272 282 278 273 277 274 263 254 253 251 252 251 243 246 254 261 268 269 267 263 265 272 276 278 283 284 283 284 285 288 289 291 294 297
110 141 148 102 62 2 63 71 100 107 95 145 167 176 184 191 186 169 173 177 158 166 184 189 196 179 159 188 199 225 232 182 171 202 182 171 211 201 197 197 153 135 141 170 204 191 167 267 353 95 287 285 241 230 277 303 296 272 271 271 260 242 239 244 245 234 222 236 252 257 258 265 272 272 262 259 258 263 271 275 279 282 282 282 284 287 289 291
124 91 110 102 82 277 150 101 93 124 184 219 174 168 189 197 179 154 136 221 163 176 188 175 162 144 138 204 226 228 213 187 198 215 196 186 207 206 204 190 163 156 166 176 192 189 181 224 358 107 270 288 157 160 316 329 316 284 261 254 238 212 217 245 257 239 214 213 242 250 250 264 284 300 293 280 269 259 257 259 268 275 277 276 277 281 285 284